| time (UTC) | temp F | wind direction | speed MPH | gust MPH | rain 1hr in | rain 24hr in | rain mn in | humidity % | barometer mb |
| 20260503054556 | 50 | 48 | 0.0 | 1.0 | 0.00 | 0.01 | 0.00 | 85 | 1022.7 |
| 20260503053043 | 51 | 48 | 1.0 | 2.0 | 0.00 | 0.01 | 0.00 | 85 | 1022.6 |
| 20260503051540 | 51 | 48 | 1.0 | 3.0 | 0.00 | 0.01 | 0.00 | 84 | 1022.5 |
| 20260503050044 | 51 | 48 | 0.0 | 2.0 | 0.00 | 0.01 | 0.00 | 84 | 1022.4 |
| 20260503044548 | 52 | 48 | 1.0 | 2.0 | 0.00 | 0.01 | 0.01 | 83 | 1022.4 |
| 20260503043045 | 52 | 48 | 0.0 | 3.0 | 0.00 | 0.01 | 0.01 | 82 | 1022.4 |
| 20260503041537 | 53 | 48 | 0.0 | 2.0 | 0.00 | 0.01 | 0.01 | 81 | 1022.2 |
| 20260503040039 | 53 | 48 | 0.0 | 2.0 | 0.00 | 0.01 | 0.01 | 80 | 1022.0 |
| 20260503034535 | 54 | 48 | 0.0 | 2.0 | 0.00 | 0.01 | 0.01 | 79 | 1022.0 |
| 20260503033034 | 55 | 48 | 0.0 | 0.0 | 0.00 | 0.01 | 0.01 | 78 | 1021.7 |
| 20260503031535 | 56 | 48 | 0.0 | 1.0 | 0.00 | 0.01 | 0.01 | 77 | 1021.5 |
| 20260503030033 | 57 | 48 | 0.0 | 1.0 | 0.00 | 0.01 | 0.01 | 74 | 1021.5 |
| 20260503024533 | 58 | 48 | 0.0 | 1.0 | 0.00 | 0.01 | 0.01 | 71 | 1021.2 |
| 20260503023032 | 59 | 48 | 0.0 | 0.0 | 0.00 | 0.01 | 0.01 | 70 | 1021.0 |
| 20260503021532 | 61 | 48 | 0.0 | 2.0 | 0.00 | 0.01 | 0.01 | 66 | 1020.8 |
| 20260503020034 | 62 | 48 | 0.0 | 2.0 | 0.00 | 0.01 | 0.01 | 64 | 1020.7 |
| 20260503014519 | 64 | 48 | 0.0 | 1.0 | 0.00 | 0.01 | 0.01 | 59 | 1020.6 |
| 20260503013019 | 65 | 48 | 1.0 | 4.0 | 0.00 | 0.01 | 0.01 | 54 | 1020.3 |
| 20260503011522 | 66 | 48 | 2.0 | 4.0 | 0.00 | 0.01 | 0.01 | 51 | 1020.0 |
| 20260503010023 | 67 | 50 | 3.0 | 5.0 | 0.00 | 0.01 | 0.01 | 49 | 1019.9 |
| 20260503004516 | 68 | 55 | 2.0 | 10.0 | 0.00 | 0.01 | 0.01 | 48 | 1019.8 |
| 20260503003018 | 69 | 70 | 3.0 | 6.0 | 0.00 | 0.01 | 0.01 | 47 | 1019.7 |
| 20260503001516 | 69 | 82 | 3.0 | 8.0 | 0.00 | 0.01 | 0.01 | 46 | 1019.6 |
| 20260503000031 | 69 | 64 | 3.0 | 9.0 | 0.00 | 0.01 | 0.01 | 46 | 1019.7 |
| 20260502234513 | 71 | 23 | 3.0 | 6.0 | 0.00 | 0.01 | 0.01 | 42 | 1019.8 |
| 20260502233013 | 72 | 44 | 2.0 | 7.0 | 0.00 | 0.01 | 0.01 | 42 | 1019.8 |
| 20260502231512 | 72 | 50 | 3.0 | 7.0 | 0.00 | 0.01 | 0.01 | 42 | 1019.8 |
| 20260502230012 | 71 | 57 | 1.0 | 8.0 | 0.00 | 0.01 | 0.01 | 42 | 1019.9 |
| 20260502224510 | 71 | 24 | 1.0 | 4.0 | 0.00 | 0.01 | 0.01 | 42 | 1019.8 |
| 20260502223024 | 72 | 86 | 3.0 | 9.0 | 0.00 | 0.01 | 0.01 | 42 | 1019.8 |
| 20260502221509 | 70 | 27 | 1.0 | 10.0 | 0.00 | 0.01 | 0.01 | 45 | 1019.9 |
| 20260502220009 | 72 | 38 | 1.0 | 10.0 | 0.00 | 0.01 | 0.01 | 42 | 1020.0 |
| 20260502214507 | 73 | 321 | 2.0 | 8.0 | 0.00 | 0.01 | 0.01 | 40 | 1020.0 |
| 20260502213007 | 72 | 68 | 5.0 | 12.0 | 0.00 | 0.01 | 0.01 | 41 | 1020.1 |
| 20260502211506 | 72 | 323 | 3.0 | 11.0 | 0.00 | 0.01 | 0.01 | 40 | 1020.4 |
| 20260502210005 | 73 | 57 | 2.0 | 10.0 | 0.00 | 0.01 | 0.01 | 44 | 1020.5 |
| 20260502204504 | 74 | 23 | 6.0 | 12.0 | 0.00 | 0.01 | 0.01 | 41 | 1020.7 |
| 20260502203003 | 73 | 102 | 3.0 | 14.0 | 0.00 | 0.01 | 0.01 | 43 | 1021.0 |
| 20260502201501 | 73 | 330 | 6.0 | 14.0 | 0.00 | 0.01 | 0.01 | 42 | 1021.3 |
| 20260502200129 | 73 | 61 | 6.0 | 11.0 | 0.00 | 0.01 | 0.01 | 44 | 1021.3 |
| 20260502194600 | 72 | 87 | 2.0 | 10.0 | 0.00 | 0.01 | 0.01 | 46 | 1021.5 |
| 20260502193056 | 70 | 38 | 8.0 | 12.0 | 0.00 | 0.01 | 0.01 | 45 | 1021.8 |
| 20260502191601 | 70 | 35 | 6.0 | 13.0 | 0.00 | 0.01 | 0.01 | 48 | 1021.8 |
| 20260502190058 | 70 | 5 | 4.0 | 14.0 | 0.00 | 0.01 | 0.01 | 46 | 1021.9 |
| 20260502184553 | 70 | 82 | 1.0 | 12.0 | 0.00 | 0.01 | 0.01 | 47 | 1022.1 |
| 20260502183052 | 71 | 84 | 1.0 | 12.0 | 0.00 | 0.01 | 0.01 | 48 | 1022.3 |
| 20260502181550 | 70 | 43 | 5.0 | 11.0 | 0.00 | 0.01 | 0.01 | 50 | 1022.4 |
| 20260502163047 | 66 | 15 | 5.0 | 17.0 | 0.00 | 0.15 | 0.01 | 55 | 1023.3 |
| 20260502161536 | 66 | 77 | 3.0 | 12.0 | 0.00 | 0.15 | 0.01 | 61 | 1023.4 |
| 20260502151553 | 61 | 332 | 9.0 | 18.0 | 0.00 | 0.16 | 0.01 | 61 | 1023.3 |
| 20260502130106 | 48 | 69 | 3.0 | 9.0 | 0.00 | 0.23 | 0.01 | 88 | 1022.1 |
| 20260502123052 | 46 | 71 | 0.0 | 3.0 | 0.00 | 0.35 | 0.01 | 88 | 1021.7 |
| 20260502121550 | 46 | 71 | 0.0 | 3.0 | 0.00 | 0.35 | 0.01 | 89 | 1021.5 |
| 20260502114545 | 46 | 71 | 1.0 | 4.0 | 0.00 | 0.47 | 0.01 | 88 | 1021.1 |
| 20260502113049 | 46 | 71 | 2.0 | 4.0 | 0.00 | 0.47 | 0.01 | 88 | 1020.7 |
| 20260502111543 | 46 | 73 | 1.0 | 5.0 | 0.00 | 0.47 | 0.01 | 88 | 1020.6 |
| 20260502110039 | 46 | 72 | 2.0 | 6.0 | 0.01 | 0.47 | 0.01 | 88 | 1020.3 |
| 20260502104536 | 46 | 72 | 1.0 | 3.0 | 0.01 | 0.47 | 0.01 | 88 | 1020.3 |
| 20260502103035 | 46 | 72 | 2.0 | 6.0 | 0.01 | 0.47 | 0.01 | 88 | 1020.3 |
| 20260502101534 | 46 | 73 | 1.0 | 3.0 | 0.01 | 0.47 | 0.01 | 88 | 1020.1 |
| 20260502091526 | 47 | 72 | 0.0 | 2.0 | 0.00 | 0.54 | 0.00 | 88 | 1019.3 |
| 20260502071509 | 49 | 94 | 6.0 | 14.0 | 0.00 | 0.54 | 0.00 | 87 | 1017.8 |
| 20260502070019 | 50 | 51 | 5.0 | 13.0 | 0.00 | 0.54 | 0.00 | 87 | 1018.3 |
| 20260502064506 | 50 | 161 | 3.0 | 8.0 | 0.00 | 0.56 | 0.00 | 87 | 1018.3 |
| 20260502063005 | 50 | 76 | 4.0 | 11.0 | 0.00 | 0.56 | 0.00 | 86 | 1018.1 |
| 20260502061502 | 50 | 42 | 4.0 | 16.0 | 0.00 | 0.56 | 0.00 | 86 | 1018.0 |
| 20260502060002 | 51 | 44 | 6.0 | 14.0 | 0.00 | 0.56 | 0.00 | 85 | 1018.2 |